This is the latest recevied weather packets stored in our database for station/object N4NVD-13. If no packets are shown the sender has not sent any weather packets the latest 1 day(s).
| Time | Temp. | Humidity | Pressure | Rain* | Wind** | Luminosity | Snow |
|---|---|---|---|---|---|---|---|
| 1777998897 | 25.56° C | 89% | 1008.1 hPa | 0 mm | 3.13 m/s, 227° | 237 W/m² | - |
| 1777998596 | 25.56° C | 90% | 1007.9 hPa | 0 mm | 1.34 m/s, 213° | 155 W/m² | - |
| 1777998291 | 25.56° C | 90% | 1008.2 hPa | 0 mm | 1.34 m/s, 216° | 235 W/m² | - |
| 1777997988 | 25° C | 91% | 1008 hPa | 0 mm | 1.79 m/s, 206° | 198 W/m² | - |
| 1777997685 | 25° C | 91% | 1007.9 hPa | 0 mm | 1.79 m/s, 216° | 263 W/m² | - |
| 1777997382 | 25° C | 92% | 1008.1 hPa | 0 mm | 2.24 m/s, 234° | 188 W/m² | - |
| 1777997080 | 24.44° C | 92% | 1008 hPa | 0 mm | 1.34 m/s, 180° | 114 W/m² | - |
| 1777996776 | 25° C | 91% | 1008.2 hPa | 0 mm | 3.13 m/s, 240° | 181 W/m² | - |
| 1777996473 | 24.44° C | 91% | 1008 hPa | 0 mm | 3.13 m/s, 213° | 201 W/m² | - |
| 1777996170 | 24.44° C | 92% | 1008.2 hPa | 0 mm | 0.89 m/s, 171° | 163 W/m² | - |
| 1777995866 | 24.44° C | 92% | 1008.1 hPa | 0 mm | 1.79 m/s, 236° | 148 W/m² | - |
| 1777995562 | 24.44° C | 92% | 1008.1 hPa | 0 mm | 2.68 m/s, 209° | 165 W/m² | - |
| 1777995259 | 24.44° C | 93% | 1008.1 hPa | 0 mm | 2.24 m/s, 223° | 138 W/m² | - |
| 1777994950 | 23.89° C | 94% | 1008 hPa | 0 mm | 2.24 m/s, 230° | 187 W/m² | - |
| 1777994647 | 23.89° C | 94% | 1007.9 hPa | 0 mm | 2.24 m/s, 235° | 93 W/m² | - |
| 1777994342 | 23.89° C | 94% | 1007.8 hPa | 0 mm | 2.68 m/s, 211° | 132 W/m² | - |
| 1777994038 | 23.89° C | 94% | 1007.9 hPa | 0 mm | 0.89 m/s, 154° | 192 W/m² | - |
| 1777993735 | 23.89° C | 94% | 1008 hPa | 0 mm | 3.13 m/s, 215° | 181 W/m² | - |
| 1777993427 | 23.89° C | 94% | 1007.9 hPa | 0 mm | 5.36 m/s, 215° | 186 W/m² | - |
| 1777993127 | 23.89° C | 94% | 1007.9 hPa | 0 mm | 0 m/s | 202 W/m² | - |
| 1777992825 | 23.33° C | 95% | 1007.9 hPa | 0 mm | 2.24 m/s, 223° | 146 W/m² | - |
| 1777992522 | 23.33° C | 95% | 1008 hPa | 0 mm | 0.89 m/s, 0° | 126 W/m² | - |
| 1777992221 | 23.33° C | 95% | 1008 hPa | 0 mm | 1.79 m/s, 208° | 76 W/m² | - |
| 1777991918 | 23.33° C | 95% | 1007.9 hPa | 0 mm | 2.68 m/s, 211° | 86 W/m² | - |
| 1777991615 | 23.33° C | 95% | 1007.6 hPa | 0 mm | 1.79 m/s, 211° | 97 W/m² | - |
* Rain latest hour (hover to see other rain measurements)
** Current wind speed in m/s (hover to see current wind gust speed)